Location: Crescent
(42.8242°N, 73.7329°W)
Time: 06:33:07
(UTC+00:00)

Tiros 1 - Pass Details

Date: 22 February 2026
Orbit: 618 x 649 km, 48.4° (Epoch: 9 March)

Event Time Altitude Azimuth Distance (km) Brightness Sun altitude
Rises 11:14:23 0° 219° (SW) 2,921 10.2 -5.8°
Reaches altitude 10° 11:16:49 10° 211° (SSW) 2,011 9.5 -5.3°
Maximum altitude 11:21:07 40° 143° (SE) 937 8.5 -4.5°
Drops below altitude 10° 11:25:25 10° 74° (ENE) 2,001 10.9 -3.8°
Sets 11:27:49 0° 67° (ENE) 2,905 11.6 -3.3°
